Home   Weather   Novorossiysk   Past weeks

Flag for Russia Past Weather in Novorossiysk, Russia — Yesterday and Last 2 Weeks

39 °F


Feels Like: 29 °F
Forecast: 36 / 48 °F
Wind: 22 mph from East

Location: Anapa / Vitiazevo

Current Time: Oct 28, 2016 at 1:43:18 AM

Latest Report: Oct 28, 2016 at 1:00 AM

Visibility: N/A

Pressure: 30.30 "Hg

Humidity: 87%

Dew Point: 36 °F

Location of NovorossiyskLocation

Past Weather in Novorossiysk — Graph


Novorossiysk Temperature Yesterday

Maximum temperature yesterday: 43 °F (at 12:00 PM)
Minimum temperature yesterday: 36 °F (at 2:00 AM)
Average temperature yesterday: 39 °F

High & Low Weather Summary for the Past Weeks

High66 °F (Oct 13, 2:30 PM)100% (Oct 14, 3:30 AM)30.45 "Hg (Oct 14, 3:30 AM)
Low32 °F (Oct 26, 4:00 AM)50% (Oct 17, 1:00 PM)29.86 "Hg (Oct 13, 3:00 AM)
Average45 °F78%30.22 "Hg
* Reported Oct 13 12:00 AM — Oct 28 12:00 AM, Novorossiysk, Weather by CustomWeather, © 2016

Note: Actual official high and low records may vary slightly from our data, if they occured in-between our weather recording intervals... More about our weather records


Novorossiysk Weather History for the Previous 24 Hours

Scroll right to see more
Time TempWeatherWind HumidityBarometerVisibility
12:00 AM
Fri, Oct 28
39 °FClear.20 mph87%30.30 "HgN/A
11:30 PM
Thu, Oct 27
39 °FClear.20 mph87%30.30 "Hg10 mi
11:00 PM39 °FClear.22 mph87%30.30 "Hg10 mi
10:30 PM39 °FPassing clouds.17 mph87%30.30 "HgN/A
10:00 PM39 °FClear.20 mph87%30.30 "Hg10 mi
9:30 PM39 °FClear.22 mph87%30.27 "Hg10 mi
9:00 PM41 °FPassing clouds.22 mph87%30.27 "HgN/A
8:00 PM41 °FClear.22 mph87%30.27 "Hg10 mi
7:30 PM41 °FClear.22 mph87%30.27 "Hg10 mi
7:00 PM41 °FPassing clouds.20 mph87%30.27 "Hg6 mi
6:30 PM41 °FLight rain. Passing clouds.20 mph93%30.27 "Hg4 mi
6:00 PM39 °FLight rain. Passing clouds.20 mph100%30.27 "Hg2 mi
5:30 PM39 °FSprinkles. Fog.20 mph100%30.24 "Hg2 mi
5:00 PM41 °FSprinkles. Partly sunny.20 mph93%30.24 "Hg2 mi
4:30 PM41 °FSprinkles. Partly sunny.13 mph87%30.27 "Hg4 mi
4:00 PM41 °FSprinkles. Partly sunny.15 mph87%30.27 "Hg2 mi
3:30 PM41 °FSprinkles. Partly sunny.13 mph87%30.27 "Hg2 mi
3:00 PM41 °FScattered clouds.13 mph87%30.24 "HgN/A
2:30 PM39 °FSprinkles. Scattered clouds.20 mph93%30.24 "Hg3 mi
2:00 PM39 °FSprinkles. Partly sunny.15 mph93%30.24 "Hg3 mi
1:30 PM39 °FSprinkles. Partly sunny.17 mph87%30.24 "Hg4 mi
1:00 PM41 °FSprinkles. Partly sunny.15 mph76%30.24 "HgN/A
12:30 PM41 °FSunny.20 mph76%30.24 "Hg10 mi
12:00 PM43 °FSunny.20 mph71%30.21 "Hg10 mi
11:30 AM41 °FSunny.17 mph70%30.24 "Hg10 mi
11:00 AM41 °FSunny.13 mph76%30.24 "Hg10 mi
10:30 AM39 °FSunny.8 mph81%30.24 "Hg10 mi
10:00 AM39 °FSunny.10 mph75%30.21 "Hg10 mi
9:30 AM39 °FPassing clouds.10 mph81%30.21 "HgN/A
9:00 AM39 °FSunny.13 mph75%30.21 "Hg10 mi
8:30 AM39 °FSunny.13 mph75%30.21 "Hg10 mi
8:00 AM37 °FPassing clouds.8 mph81%30.18 "HgN/A
7:30 AM37 °FSunny.22 mph81%30.18 "HgN/A
7:00 AM36 °FClear.22 mph87%30.18 "HgN/A
6:30 AM36 °FClear.24 mph81%30.18 "HgN/A
6:00 AM36 °FClear.26 mph87%30.15 "HgN/A
5:30 AM36 °FClear.24 mph81%30.15 "HgN/A
5:00 AM36 °FClear.22 mph87%30.15 "HgN/A
4:30 AM36 °FClear.20 mph87%30.15 "HgN/A
4:00 AM36 °FClear.17 mph87%30.15 "HgN/A
3:30 AM36 °FClear.20 mph81%30.15 "HgN/A
3:00 AM36 °FClear.17 mph81%30.15 "HgN/A
2:30 AM36 °FClear.15 mph81%30.15 "HgN/A
2:00 AM36 °FClear.17 mph87%30.18 "HgN/A
1:30 AM37 °FClear.22 mph81%30.18 "HgN/A
1:00 AM37 °FClear.22 mph81%30.18 "HgN/A
Weather by CustomWeather, © 2016

See weather overviewHow to use our weather pages